Regional Weather Roundup
Issued by NWS

Home | Current Version | Previous Version | Text Only | Print | Product List | Glossary On
Versions: 1 2 3 4 5 6 7 8 9 10 11 12 13 14 15 16 17 18 19 20 21 22 23 24 25 26 27
000
ASUS44 KLIX 241413
RWRLA
LOUISIANA WEATHER ROUNDUP
NATIONAL WEATHER SERVICE NEW ORLEANS LA
900 AM CDT FRI MAR 24 2017

NOTE: "FAIR" INDICATES FEW OR NO CLOUDS BELOW 12,000 FEET WITH NO
      SIGNIFICANT WEATHER AND/OR OBSTRUCTIONS TO VISIBILITY.
      SKY/WX - SKY CONDITION AND SIGNIFICANT WEATHER.
      TMP - AIR TEMPERATURE.    DP   - DEWPOINT TEMPERATURE.
      RH  - RELATIVE HUMIDITY.  PRES - PRESSURE.
      HX  - HEAT INDEX.         WCI  - WIND CHILL INDEX.

*  THESE STATIONS ARE NOT NWS OR FAA STATIONS AND ARE NOT UNDER
   NWS QUALITY CONTROL.

LAZ040-048-061>063-065-066-069-241500-
SOUTHEAST LOUISIANA

CITY           SKY/WX    TMP DP  RH WIND       PRES   REMARKS
N.O. INTL ARPT PTSUNNY   72  66  81 SE20      30.16S
N.O. LAKEFRONT MOSUNNY   73  67  81 SE24G30   30.18S
N.O. DOWNTOWN*   N/A     73  66  78 SE12G22   30.19R
RESERVE*       CLOUDY    74  69  85 SE10G16   30.16S
SLIDELL        CLOUDY    74  66  76 SE16G26   30.18S
BATON ROUGE    CLOUDY    71  65  81 SE9       30.14R
BOOTHVILLE     PTSUNNY   72  68  87 SE10      30.21R
BELLE CHASSE   PTSUNNY   75  68  78 SE16G24   30.18R
BOGALUSA*      CLOUDY    73  64  75 S13G20    30.20S
GALLIANO*      PTSUNNY   73  65  74 SE12G21   30.17R
NEW ROADS*     CLOUDY    70  65  84 SE9G16    30.14R
GONZALES*      FAIR      72  65  80 SE9       30.14S
HAMMOND*       CLOUDY    72  63  73 SE13G20   30.17S
HOUMA*         PTSUNNY   73  66  78 SE16      30.16R
PORT FOURCHON* PTSUNNY   73  68  83 SE17G25   30.17R

$$

LAZ041-044-053-054-241500-
SOUTHWEST LOUISIANA

CITY           SKY/WX    TMP DP  RH WIND       PRES   REMARKS
LAKE CHARLES   CLOUDY    72  65  78 S18G24    30.07R
LAFAYETTE      CLOUDY    73  67  81 S9        30.12R
PATTERSON      MOSUNNY   71  67  87 SE10      30.14R
SALT POINT       N/A     70  65  84 SE10      30.12R
NEW IBERIA     CLOUDY    71  65  81 SE14      30.13R
CHENAULT AIRPK MOSUNNY   70  66  88 S12G18    30.08R

$$

LAZ027-028-241500-
CENTRAL LOUISIANA

CITY           SKY/WX    TMP DP  RH WIND       PRES   REMARKS
FORT POLK      CLOUDY    69  67  93 SE13      30.08R
ALEXANDRIA INT LGT RAIN  70  64  81 S14G22    30.09R
ALEXANDRIA     CLOUDY    70  65  84 S9        30.11R

$$

LAZ001-002-241500-
NORTHWEST LOUISIANA

CITY           SKY/WX    TMP DP  RH WIND       PRES   REMARKS
SHREVEPORT     CLOUDY    71  63  75 MISG      30.06R
BARKSDALE AFB  CLOUDY    69  61  75 S12       30.06S
DTN SHREVEPORT CLOUDY    70  61  73 SE9       30.06S

$$

LAZ014-016-241500-
NORTHEAST LOUISIANA

CITY           SKY/WX    TMP DP  RH WIND       PRES   REMARKS
MONROE         CLOUDY    70  63  78 S8        30.13R
TALLULAH       CLOUDY    70  62  76 S14       30.14R

$$





USA.gov is the U.S. government's official web portal to all federal, state and local government web resources and services.